GW7483 Weather Reports


time (UTC)temp
F
wind
direction
speed
knots
gust
knots
rain 1hr
in
rain 24hr
in
rain mn
in
humidity
%
barometer
mb
20260906110052 93 128 3.5 6.1 0.00 0.00 0.00 41 1018.5
20260906104547 93 220 2.6 6.1 0.00 0.00 0.00 42 1018.5
20260906103111 94 224 1.7 7.0 0.00 0.00 0.00 44 1018.5
20260906101503 93 271 1.7 6.1 0.00 0.00 0.00 40 1018.7
20260906100059 93 162 1.7 6.1 0.00 0.00 0.00 40 1018.7
20260906094546 93 262 0.9 3.5 0.00 0.00 0.00 39 1018.8
20260906093041 92 241 0.9 6.1 0.00 0.00 0.00 41 1018.9
20260906091536 91 193 1.7 7.0 0.00 0.00 0.00 40 1019.0
20260906090058 91 224 2.6 6.1 0.00 0.00 0.00 39 1019.0
20260906084538 92 221 1.7 6.1 0.00 0.00 0.00 39 1019.0
20260906083038 92 224 0.9 4.3 0.00 0.00 0.00 34 1019.0
20260906081607 91 219 0.9 3.5 0.00 0.00 0.00 35 1019.1
20260906080031 90 277 0.0 3.5 0.00 0.00 0.00 35 1019.0
20260906074511 90 167 0.9 2.6 0.00 0.00 0.00 35 1019.0
20260906073052 89 304 0.0 2.6 0.00 0.00 0.00 36 1018.9
20260906071509 88 250 0.9 2.6 0.00 0.00 0.00 36 1018.8
20260906070041 87 218 0.9 2.6 0.00 0.00 0.00 37 1018.7
20260906064608 86 304 0.9 2.6 0.00 0.00 0.00 37 1018.6
20260906063014 85 280 0.9 1.7 0.00 0.00 0.00 38 1018.6
20260906061558 85 287 0.0 1.7 0.00 0.00 0.00 39 1018.3
20260906060056 84 315 0.0 2.6 0.00 0.00 0.00 40 1018.2
20260906054548 85 309 0.0 0.0 0.00 0.00 0.00 39 1018.1
20260906053019 84 23 0.0 0.0 0.00 0.00 0.00 39 1018.1
20260906051548 83 23 0.0 0.9 0.00 0.00 0.00 39 1018.1
20260906050009 81 23 0.0 0.9 0.00 0.00 0.00 41 1018.2
20260906044502 80 22 0.0 0.9 0.00 0.00 0.00 42 1018.1
20260906043013 77 22 0.0 1.7 0.00 0.00 0.00 44 1018.0
20260906041524 77 72 0.0 1.7 0.00 0.00 0.00 44 1017.7
20260906040036 77 52 0.9 3.5 0.00 0.00 0.00 44 1017.6
20260906034556 77 28 0.9 2.6 0.00 0.00 0.00 44 1017.6
20260906033035 77 58 0.9 2.6 0.00 0.00 0.00 43 1017.5
20260906031555 77 65 0.9 2.6 0.00 0.00 0.00 42 1017.5
20260906030039 77 51 0.9 1.7 0.00 0.00 0.00 42 1017.4
20260906024519 77 30 0.0 1.7 0.00 0.00 0.00 42 1017.1
20260906023058 77 113 0.9 2.6 0.00 0.00 0.00 42 1017.0
20260906021526 77 23 0.9 1.7 0.00 0.00 0.00 42 1017.2
20260906020046 77 38 0.0 1.7 0.00 0.00 0.00 42 1017.1
20260906014528 78 38 0.9 1.7 0.00 0.00 0.00 42 1017.1
20260906013051 77 38 0.0 1.7 0.00 0.00 0.00 43 1017.1
20260906011555 77 38 0.0 1.7 0.00 0.00 0.00 43 1017.3
20260906010046 77 39 0.0 0.9 0.00 0.00 0.00 43 1017.4
20260906004502 78 39 0.0 1.7 0.00 0.00 0.00 43 1017.3
20260906003048 78 21 0.0 1.7 0.00 0.00 0.00 42 1017.3
20260906001507 78 21 0.0 2.6 0.00 0.00 0.00 42 1017.2
20260906000108 78 77 0.9 2.6 0.00 0.00 0.00 41 1017.3
20260905234550 79 332 0.9 2.6 0.00 0.00 0.00 41 1017.4
20260905233059 79 63 0.0 3.5 0.00 0.00 0.00 41 1017.5
20260905231509 79 84 0.0 2.6 0.00 0.00 0.00 40 1017.7
20260905230047 79 86 0.0 1.7 0.00 0.00 0.00 39 1017.8
20260905224548 79 82 0.9 3.5 0.00 0.00 0.00 40 1017.9
20260905223027 80 90 0.9 2.6 0.00 0.00 0.00 40 1018.0
20260905221505 80 103 0.0 1.7 0.00 0.00 0.00 40 1018.1
20260905220058 81 105 0.0 0.9 0.00 0.00 0.00 40 1017.9
20260905214513 81 105 1.7 3.5 0.00 0.00 0.00 39 1017.9
20260905211608 81 126 0.9 1.7 0.00 0.00 0.00 40 1018.1
20260905210004 81 126 0.0 1.7 0.00 0.00 0.00 40 1018.2
20260905204513 82 25 0.0 2.6 0.00 0.00 0.00 40 1018.1
20260905203038 82 33 1.7 3.5 0.00 0.00 0.00 40 1017.9
20260905201512 82 46 1.7 4.3 0.00 0.00 0.00 40 1018.0
20260905200027 82 338 1.7 3.5 0.00 0.00 0.00 40 1018.0
20260905194606 82 347 1.7 3.5 0.00 0.00 0.00 39 1018.1
20260905191605 83 19 2.6 7.0 0.00 0.00 0.00 39 1017.9
20260905184517 83 24 2.6 7.8 0.00 0.00 0.00 39 1018.0
20260905183030 83 20 5.2 7.0 0.00 0.00 0.00 39 1017.9
20260905181517 84 54 2.6 6.1 0.00 0.00 0.00 39 1017.8
20260905180031 84 15 1.7 7.0 0.00 0.00 0.00 39 1017.7
20260905174537 84 70 3.5 7.8 0.00 0.00 0.00 39 1017.5
20260905173009 84 35 4.3 7.8 0.00 0.00 0.00 39 1017.6
20260905171600 85 44 5.2 11.3 0.00 0.00 0.00 39 1017.4
20260905170021 85 41 4.3 11.3 0.00 0.00 0.00 39 1017.3
20260905164558 86 352 6.1 11.3 0.00 0.00 0.00 38 1017.3
20260905163040 86 326 5.2 9.6 0.00 0.00 0.00 37 1017.4
20260905161602 88 23 5.2 9.6 0.00 0.00 0.00 35 1017.3
20260905160017 88 63 6.1 14.8 0.00 0.00 0.00 35 1017.4
20260905154507 88 13 7.0 11.3 0.00 0.00 0.00 34 1017.5
20260905153038 88 38 6.1 13.9 0.00 0.00 0.00 35 1017.5
20260905151507 89 8 7.8 13.9 0.00 0.00 0.00 35 1017.4
20260905150017 89 17 6.1 14.8 0.00 0.00 0.00 34 1017.3
20260905144635 89 313 8.7 13.0 0.00 0.00 0.00 35 1017.3
20260905141604 89 57 6.1 13.0 0.00 0.00 0.00 36 1017.1
20260905140048 89 321 7.8 13.9 0.00 0.00 0.00 37 1017.1
20260905134513 89 343 5.2 16.5 0.00 0.00 0.00 38 1017.2
20260905133056 89 27 4.3 14.8 0.00 0.00 0.00 37 1017.3
20260905131535 88 38 5.2 15.6 0.00 0.00 0.00 37 1017.4
20260905130016 88 55 7.0 16.5 0.00 0.00 0.00 37 1017.3
20260905124534 89 20 9.6 19.1 0.00 0.00 0.00 37 1017.4
20260905123018 89 23 7.0 16.5 0.00 0.00 0.00 37 1017.5
20260905121519 88 32 9.6 14.8 0.00 0.00 0.00 38 1017.7
20260905120018 88 328 7.0 14.8 0.00 0.00 0.00 38 1017.9
20260905114505 89 358 5.2 13.0 0.00 0.00 0.00 38 1017.9
20260905113056 88 336 7.8 14.8 0.00 0.00 0.00 39 1017.9
20260905111508 88 333 7.0 14.8 0.00 0.00 0.00 38 1017.9